#timestamp,LO_Frequency,Hit,StdDev 
1619038815.6,286047005.4,N
1619038835.4,286047004.1,N
1619038855.3,286047005.1,N
1619038875.1,286047006.9,N
1619038895.8,286047008.9,N
1619038915.7,286047003.8,N
1619038935.5,286047007.2,N
1619038955.4,286047006.7,N
1619038975.2,286047008.8,N
1619038995.0,286047013.4,N
1619038995.9,286047013.4,N
1619039015.8,286047014.0,N
1619039035.6,286047014.0,N
1619039055.5,286047017.1,N
1619039075.3,286047021.9,Y
1619039095.1,286047009.3,P
1619039115.9,286047010.5,P
1619039135.7,286047011.5,P
1619039155.5,286047013.1,Y
1619039175.4,286047001.2,P
1619039195.2,286047001.9,N
1619039215.1,286047001.6,N
1619039216.0,286047001.6,N
1619039235.8,286046995.3,N
1619039255.6,286046992.0,N
1619039275.5,286046993.4,N
1619039295.3,286046997.6,N
1619039315.2,286046995.0,N
1619039335.9,286047000.5,N
1619039355.7,286047004.1,N
1619039375.6,286047003.2,N
1619039395.4,286047007.7,N
1619039415.2,286047005.5,N
1619039435.1,286047004.2,N
1619039436.0,286047004.2,N
1619039455.8,286047007.6,N
1619039475.7,286047006.4,N
1619039495.5,286047004.3,N
1619039515.3,286047004.8,N
1619039535.2,286047008.8,N
1619039555.0,286047009.5,N
1619039555.9,286047009.5,N
1619039575.7,286047013.7,N
1619039595.6,286047013.8,N
1619039615.4,286047015.0,N
1619039635.3,286047013.0,N
1619039655.1,286047012.8,N
1619039675.8,286047010.9,N
1619039695.7,286047013.0,N
1619039715.5,286047018.2,N
1619039735.4,286047015.4,N
1619039755.2,286047015.5,N
1619039775.0,286047018.0,N
1619039775.9,286047018.0,N
1619039795.8,286047020.4,N
1619039815.6,286047015.3,N
1619039835.4,286047015.2,N
1619039855.3,286047019.5,Y
1619039875.1,286047013.1,P
1619039895.9,286047012.3,P
1619039915.7,286047010.4,P
1619039935.5,286047005.8,Y
1619039955.4,286046990.8,P
1619039975.2,286046993.8,N
1619039995.1,286047000.8,N
1619039996.0,286047000.8,N
1619040015.8,286047002.5,N
1619040035.6,286047005.6,N
1619040055.5,286047001.8,N
1619040075.3,286047004.4,N
1619040095.1,286047000.0,N
1619040115.9,286047001.0,N
1619040135.7,286046998.3,N
1619040155.6,286047000.7,N
1619040175.4,286047001.3,N
1619040195.2,286047000.8,N
1619040215.1,286046999.0,N
1619040216.0,286046999.0,N
1619040235.8,286046996.3,N
1619040255.7,286046993.7,N
1619040275.5,286046991.8,N
1619040295.3,286046993.3,N
1619040315.2,286046990.3,N
1619040335.9,286046987.6,N
1619040355.7,286046992.6,N
1619040375.6,286046994.0,N
1619040395.4,286046998.9,N
1619040415.3,286047009.0,N
1619040435.1,286047010.6,N
1619040436.0,286047010.6,N
1619040455.8,286047006.7,N
1619040475.7,286047008.6,N
1619040495.5,286047008.8,N
1619040515.3,286047009.3,N
1619040535.2,286047009.6,N
1619040555.0,286047006.5,N
1619040555.9,286047006.5,N
1619040575.8,286047006.2,N
1619040595.6,286047009.0,N
1619040615.4,286047015.2,N
1619040635.3,286047016.5,N
1619040655.1,286047015.0,N
1619040675.9,286047015.2,N
1619040695.7,286047014.1,N
1619040715.5,286047018.3,N
1619040735.4,286047023.4,N
1619040755.2,286047026.5,N
1619040775.0,286047029.7,N
1619040775.9,286047029.7,N
1619040795.8,286047025.6,N
1619040815.6,286047025.5,N
1619040835.5,286047025.1,N
1619040855.3,286047020.6,N
1619040875.1,286047021.8,N
1619040895.9,286047022.8,N
1619040915.7,286047022.5,N
1619040935.5,286047021.9,N
1619040955.4,286047017.8,N
1619040975.2,286047021.7,N
1619040995.1,286047019.4,N
1619040996.0,286047019.4,N
1619041015.8,286047020.2,N
1619041035.7,286047019.0,N
1619041055.5,286047021.6,Y
1619041075.4,286046999.7,P
1619041095.2,286046999.7,N
1619041115.0,286047003.5,N
1619041115.9,286047003.5,N
1619041135.8,286047005.0,N
1619041155.6,286047004.3,N
1619041175.5,286047003.7,N
1619041195.3,286047008.6,N
1619041215.1,286047008.3,N
1619041235.9,286047009.6,N
1619041255.7,286047010.3,N
1619041275.6,286047006.5,N
1619041295.4,286047006.3,N
1619041315.2,286047006.4,N
1619041335.1,286047008.9,N
1619041336.0,286047008.9,N
1619041355.8,286047008.3,N
1619041375.7,286047008.3,N
1619041395.5,286047010.8,N
1619041415.3,286047011.9,N
1619041435.2,286047014.0,Y
1619041455.0,286047004.6,P
1619041455.9,286047004.6,P
1619041475.7,286047006.3,P
1619041495.6,286047005.9,Y
1619041515.4,286046999.3,P
1619041535.3,286046998.4,N
1619041555.1,286046999.9,N
1619041575.8,286047001.3,N
1619041595.7,286047008.9,Y
1619041615.5,286047006.0,P
1619041635.4,286047005.0,N
1619041655.2,286047008.8,P
1619041675.1,286047010.2,Y
1619041676.0,286047010.2,P
1619041695.8,286047009.0,P
1619041715.6,286047010.4,P
1619041735.5,286047009.3,Y
1619041755.3,286047001.3,P
1619041775.2,286047001.1,N
1619041795.9,286047000.2,N
1619041815.7,286046998.9,N
1619041835.6,286046996.7,N
1619041855.4,286046996.9,N
1619041875.3,286047001.1,N
1619041895.1,286047003.9,N
1619041896.0,286047003.9,N
1619041915.8,286047003.7,N
1619041935.7,286047000.0,N
1619041955.5,286047000.5,N
1619041975.3,286047001.1,N
1619041995.2,286047002.1,N
1619042015.0,286047004.0,N
1619042015.9,286047004.0,N
1619042035.8,286047003.2,N
1619042055.6,286046998.3,N
1619042075.4,286046996.5,N
1619042095.3,286046999.4,N
1619042115.1,286047001.5,N
1619042135.9,286047003.7,N
1619042155.7,286047004.2,N
1619042175.5,286047002.0,N
1619042195.4,286047007.0,N
1619042215.2,286047009.0,Y
1619042235.1,286047001.5,P
1619042236.0,286047001.5,P
1619042255.8,286047004.7,P
1619042275.6,286047006.6,Y
1619042295.5,286047003.3,P
1619042315.3,286047001.4,N
1619042335.1,286047006.9,P
1619042355.9,286047003.8,N
1619042375.7,286047003.5,N
1619042395.6,286047006.9,Y
